This is the latest recevied weather packets stored in our database for station/object IZ1UQG-2. If no packets are shown the sender has not sent any weather packets the latest 10 day(s).
| Time | Temp. | Humidity | Pressure | Rain* | Wind** | Luminosity | Snow |
|---|---|---|---|---|---|---|---|
| 1777546205 | 15.56° C | 47% | 1023 hPa | 0 mm | - | 633 W/m² | - |
| 1777545484 | 15.56° C | 46% | 1022.9 hPa | 0 mm | - | 429 W/m² | - |
| 1777545184 | 15.56° C | 47% | 1022.9 hPa | 0 mm | - | 462 W/m² | - |
| 1777544704 | 15.56° C | 47% | 1022.9 hPa | 0 mm | - | 492 W/m² | - |
| 1777544584 | 15.56° C | 48% | 1022.9 hPa | 0 mm | - | 513 W/m² | - |
| 1777544228 | 15.56° C | 48% | 1022.9 hPa | 0 mm | - | 524 W/m² | - |
| 1777543504 | 15.56° C | 48% | 1022.9 hPa | 0 mm | - | 513 W/m² | - |
| 1777543444 | 15.56° C | 49% | 1023 hPa | 0 mm | - | 501 W/m² | - |
| 1777543384 | 15.56° C | 49% | 1023 hPa | 0 mm | - | 496 W/m² | - |
| 1777543324 | 15° C | 48% | 1022.9 hPa | 0 mm | - | 512 W/m² | - |
| 1777543267 | 15° C | 47% | 1023 hPa | 0 mm | - | 529 W/m² | - |
| 1777542724 | 15.56° C | 52% | 1022.9 hPa | 0 mm | - | 508 W/m² | - |
| 1777542605 | 15.56° C | 49% | 1022.8 hPa | 0 mm | - | 540 W/m² | - |
| 1777542544 | 15.56° C | 49% | 1022.8 hPa | 0 mm | - | 563 W/m² | - |
| 1777541944 | 15.56° C | 52% | 1023 hPa | 0 mm | - | 556 W/m² | - |
| 1777541644 | 15° C | 54% | 1023 hPa | 0 mm | - | 406 W/m² | - |
| 1777541528 | 15° C | 53% | 1023 hPa | 0 mm | - | 394 W/m² | - |
| 1777541045 | 15° C | 51% | 1023 hPa | 0 mm | - | 376 W/m² | - |
| 1777539304 | 14.44° C | 57% | 1023.2 hPa | 0 mm | - | 309 W/m² | - |
| 1777538583 | 13.89° C | 61% | 1023.2 hPa | 0 mm | - | 285 W/m² | - |
| 1777538464 | 13.89° C | 60% | 1023.1 hPa | 0 mm | - | 271 W/m² | - |
| 1777537624 | 13.33° C | 78% | 1023.2 hPa | 0 mm | - | 241 W/m² | - |
| 1777537564 | 13.33° C | 78% | 1023.3 hPa | 0 mm | - | 239 W/m² | - |
| 1777536912 | 12.78° C | 80% | 1023.2 hPa | 0 mm | - | 197 W/m² | - |
| 1777536725 | 12.78° C | 80% | 1023.2 hPa | 0 mm | - | 185 W/m² | - |
* Rain latest hour (hover to see other rain measurements)
** Current wind speed in m/s (hover to see current wind gust speed)